CZ-4B DEB, 40530

Orbit data source: Space-Track

CZ-4B DEB, 40530 is space debris in LEO originally from a launch on Fri, 25 Oct 2013 UTC launched from the Jiuquan Satellite Launch Center, China (JSC). Debris objects in space refer to the collection of defunct objects orbiting the Earth. Examples of debris include non-operational satellites, rocket bodies, and fragments generated from explosions, collisions, or faulty payload assembly.

Loading next visibility...
Identifier
40530, 2013-057C
Orbit
LEO
Country
Flag of CNCN / PRC
Related business
Manufacturer
SAST
Mission
Spacecraft
Bus & Motor
Unknown
Mass
Unknown
Launch date (UTC)
2013-10-25 (13 years ago)
Launch vehicle
Unknown
Launch site
Jiuquan Satellite Launch Center, China (JSC)
Object type
Payload
Rocket body
Debris
Shape & HBR
Unknown shape, 0.1 m
Radar Cross Section
Small (<0.1 m²)

Expand to show TLE details & history
Last TLE update: 2 days ago

TLE from 2 days ago
0 CZ-4B DEB
1 40530U 13057C   26171.20488212  .00003750  00000-0  63875-3 0  9999
2 40530  75.0487 251.4833 0170192 145.5234 215.7122 14.60151261592817
Epoch: 2026-06-20T04:55Z
TLE epoch observation values (Epoch: 2026-06-20T04:55:01.815Z)
Latitude
0.00008°
Longitude
-90.69709°
Altitude
793.797 km
Speed
7.405 km/s
True Right ascension
16h 45m 55s
True Declination
0° 00' 00"
Sunlit
Object was in full shadow at epoch
Visualization orbit readout
Latitude
Unknown
Longitude
Unknown
Altitude
Unknown
Speed
Unknown
Apparent Right ascension
Unknown
Apparent Declination
Unknown
Sunlit
N/A
Visualization observer readout
Local Sidereal Time
21:35:40
Azimuth
Unknown
Elevation
Unknown
Doppler factor
Unknown
Orbital elements
Apogee altitude
810.495 km
Perigee altitude
569.9 km
Semi-major axis
7,068.334 km
Eccentricity
0.01702
Inclination
75.0487°
RAAN
251.4833°
Arg. of periapsis
145.5234°
True anomaly
214.59322°
Mean anomaly
215.7122°
Eccentric anomaly
215.15079°
Mean motion
3.65231 °/min
Orbital period
98.57 mins
BSTAR
0.00063875
Loading maneuver chart data...
Computing Atmospheric mass density...
Loading historical data...
Loading historical data...
Loading historical data...
Loading historical data...
Loading historical data...
Loading historical data...
Loading historical data...
Other satellites on launch #57 in the year 2013 (2013-10-25 UTC)

Documentation

Showing up to 5 results
|